Regional Weather Roundup
Issued by NWS

Home | Current Version | Previous Version | Text Only | Print | Product List | Glossary On
Versions: 1 2 3 4 5 6 7 8 9 10 11 12 13 14 15 16 17 18 19 20 21 22 23 24 25 26 27 28 29 30 31 32 33 34 35 36 37 38 39 40 41 42 43 44 45 46 47 48 49 50
415
ASUS43 KFSD 180310
RWRSD

WEATHER ROUNDUP FOR SOUTH DAKOTA
NATIONAL WEATHER SERVICE SIOUX FALLS SD
900 PM CST SUN DEC 17 2017

NOTE: "FAIR" INDICATES FEW OR NO CLOUDS BELOW 12,000 FEET WITH NO
SIGNIFICANT WEATHER AND/OR OBSTRUCTIONS TO VISIBILITY.


SDZ001>005-009-010-012>017-180400-
NORTHWEST AND NORTH CENTRAL SOUTH DAKOTA

CITY           SKY/WX    TMP DP  RH WIND       PRES   REMARKS
BUFFALO          N/A     31  22  69 W14       29.73R WCI  21
FAITH            N/A     31  25  78 SW10      29.81S WCI  22
MOBRIDGE       CLOUDY    30  26  85 S6        29.80F WCI  24
$$

SDZ012>016-024>037-041>051-057-063-072>074-180400-
SOUTHWEST AND SOUTH CENTRAL SOUTH DAKOTA

CITY           SKY/WX    TMP DP  RH WIND       PRES   REMARKS
RAPID CTY ARPT CLOUDY    27  19  72 W7        29.83F WCI  19
PIERRE         CLOUDY    32  29  88 S8        29.85F WCI  25
CUSTER         CLOUDY    25  13  60 W10       29.81R WCI  15
ELLSWORTH AFB  CLOUDY    26  19  75 NW8       29.82S WCI  17
PHILIP         PTCLDY    27  25  92 W8        29.83F WCI  19
PINE RIDGE     CLOUDY    27  23  85 W8        29.87R WCI  19
SPEARFISH      FAIR      34  18  51 W14G21    29.83R WCI  24
WINNER         FAIR      36  28  73 S15       29.87F
$$

SDZ004>011-016>023-039-040-180400-
NORTHEAST SOUTH DAKOTA

CITY           SKY/WX    TMP DP  RH WIND       PRES   REMARKS
ABERDEEN       CLOUDY    33  30  88 S9        29.86F WCI  25
WATERTOWN      CLOUDY    33  31  92 S10       29.87F WCI  25
BROOKINGS      CLOUDY    33  26  75 S8        29.92S WCI  26
SISSETON         N/A     33  31  92 S10       29.86F WCI  25
$$

SDZ017-020-022-023-036>040-048>070-180400-
SOUTHEAST SOUTH DAKOTA

CITY           SKY/WX    TMP DP  RH WIND       PRES   REMARKS
SIOUX FALLS    CLOUDY    32  29  88 SW5       29.94F WCI  27
HURON          CLOUDY    37  31  78 MISG      29.89F
CHAMBERLAIN    CLEAR     33  31  94 S7        29.88S WCI  26
MITCHELL       CLOUDY    37  29  72 S8        29.93F
YANKTON        CLEAR     28  26  92 S3        29.97F
$$

ABBREVIATIONS USED IN REMARKS
   TC - TEMPERATURE IN CELSIUS
  WCI - WIND CHILL INDEX
   HX - HEAT INDEX
  VSB - VISIBILITY





USA.gov is the U.S. government's official web portal to all federal, state and local government web resources and services.